This demonstration page uses our WeatherBlox Daily Observations layout. Learn more.

Hourly Observations for November 9, 2019

Temp ( °F °C ) Dew Point ( °F °C ) Humidity (%) Winds ( mph kmh ) Pressure ( in mb ) Visibility ( mi km ) Precip ( " mm )
12:15 am 00:15 Clear 42 5.6 27 -3 54 54 NW 8 13 30.13 1020 10 16.0934 0 0
12:35 am 00:35 Clear 43 6 27 -3 53 53 WNW 7 11 30.12 1020 10 16.0934 0 0
12:55 am 00:55 Clear 42 5.8 27 -3 54 54 WNW 8 13 30.12 1020 10 16.0934 0 0
1:15 am 01:15 Clear 41 4.9 26 -3.1 57 57 W 7 11 30.13 1020 10 16.0934 0 0
1:35 am 01:35 Clear 42 5.6 27 -3 54 54 W 8 13 30.12 1020 10 16.0934 0 0
1:55 am 01:55 Clear 43 6 27 -3 53 53 W 7 11 30.12 1020 10 16.0934 0 0
2:15 am 02:15 Clear 43 6.2 27 -2.9 52 52 WNW 6 9 30.12 1020 10 16.0934 0 0
2:35 am 02:35 Clear 41 4.9 27 -3 57 57 W 7 11 30.12 1020 10 16.0934 0 0
2:55 am 02:55 Clear 40 4.4 27 -3 59 59 W 6 9 30.12 1020 10 16.0934 0 0
3:15 am 03:15 Clear 38 3.4 26 -3.5 61 61 W 6 9 30.13 1020 10 16.0934 0 0
3:35 am 03:35 Clear 39 4 26 -3.1 60 60 W 5 7 30.12 1020 10 16.0934 0 0
3:55 am 03:55 Clear 39 3.8 26 -3.3 60 60 W 8 13 30.13 1020 10 16.0934 0 0
4:15 am 04:15 Clear 38 3.5 27 -2.7 64 64 W 6 9 30.12 1020 10 16.0934 0 0
4:35 am 04:35 Clear 39 4.1 27 -2.6 62 62 W 7 11 30.12 1020 10 16.0934 0 0
4:55 am 04:55 Clear 40 4.7 27 -2.6 60 60 W 7 11 30.1 1019 10 16.0934 0 0
5:15 am 05:15 Clear 40 4.7 27 -2.9 58 58 W 5 7 30.11 1020 10 16.0934 0 0
5:35 am 05:35 Clear 36 2.2 26 -3.4 67 67 W 7 11 30.13 1020 10 16.0934 0 0
5:55 am 05:55 Clear 38 3.4 27 -2.8 64 64 W 8 13 30.12 1020 10 16.0934 0 0
6:15 am 06:15 Clear 38 3.4 28 -2.5 66 66 W 6 9 30.12 1020 10 16.0934 0 0
6:35 am 06:35 Clear 38 3.2 27 -2.8 65 65 W 3 6 30.11 1020 10 16.0934 0 0
6:55 am 06:55 Clear 37 2.9 27 -2.7 67 67 WSW 5 7 30.12 1020 10 16.0934 0 0
7:15 am 07:15 Clear 37 2.8 27 -3 66 66 W 5 7 30.12 1020 10 16.0934 0 0
7:35 am 07:35 Sunny 37 2.8 27 -2.6 68 68 WSW 5 7 30.12 1020 10 16.0934 0 0
7:55 am 07:55 Sunny 39 4 29 -1.8 66 66 WSW 6 9 30.11 1020 10 16.0934 0 0
8:15 am 08:15 Sunny 42 5.4 29 -1.4 62 62 W 6 9 30.09 1019 10 16.0934 0 0
8:35 am 08:35 Sunny 46 7.5 30 -1.2 54 54 W 7 11 30.08 1018 10 16.0934 0 0
8:55 am 08:55 Sunny 47 8.1 31 -0.8 54 54 WSW 7 11 30.07 1018 10 16.0934 0 0
9:15 am 09:15 Sunny 49 9.4 31 -0.5 50 50 W 8 13 30.07 1018 10 16.0934 0 0
9:35 am 09:35 Sunny 52 11.1 32 -0.1 46 46 W 7 11 30.05 1018 10 16.0934 0 0
9:55 am 09:55 Sunny 55 12.6 32 0 42 42 W 8 13 30.03 1017 10 16.0934 0 0
10:15 am 10:15 Sunny 58 14.2 32 0.1 38 38 W 9 15 30.02 1016 10 16.0934 0 0
10:35 am 10:35 Sunny 60 15.4 32 0 35 35 WSW 9 15 30 1016 10 16.0934 0 0
10:55 am 10:55 Sunny 62 16.5 32 0.1 33 33 W 14 22 29.99 1015 10 16.0934 0 0
11:15 am 11:15 Sunny 65 18.1 33 0.3 30 30 W 13 20 29.95 1014 10 16.0934 0 0
11:35 am 11:35 Sunny 66 18.7 32 0 29 29 W 16 26 29.94 1014 10 16.0934 0 0
11:55 am 11:55 Sunny 66 19 32 0.1 28 28 WSW 15 24 29.93 1013 10 16.0934 0 0
12:15 pm 12:15 Sunny 66 19 32 0 28 28 WSW 14 22 29.92 1013 10 16.0934 0 0
12:35 pm 12:35 Sunny 68 19.9 32 0 26 26 WSW 15 24 29.89 1012 10 16.0934 0 0
12:55 pm 12:55 Sunny 69 20.5 32 0 25 25 WSW 15 24 29.87 1012 10 16.0934 0 0
1:15 pm 13:15 Sunny 71 21.5 33 0.3 24 24 WSW 15 24 29.85 1011 10 16.0934 0 0
1:35 pm 13:35 Sunny 72 22.1 31 -0.5 22 22 SW 13 20 29.83 1010 10 16.0934 0 0
1:55 pm 13:55 Sunny 73 22.8 31 -0.3 22 22 SW 15 24 29.82 1010 10 16.0934 0 0
2:15 pm 14:15 Sunny 73 23 32 -0.1 22 22 SW 13 20 29.81 1010 10 16.0934 0 0
2:35 pm 14:35 Sunny 76 24.2 32 0 20 20 SW 12 19 29.79 1009 10 16.0934 0 0
2:55 pm 14:55 Sunny 76 24.4 32 -0.1 20 20 SW 15 24 29.78 1009 10 16.0934 0 0
3:15 pm 15:15 Sunny 76 24.5 32 -0.2 20 20 SW 18 30 29.76 1008 10 16.0934 0 0
3:35 pm 15:35 Sunny 75 23.8 31 -0.5 20 20 SW 12 19 29.77 1008 10 16.0934 0 0
3:55 pm 15:55 Sunny 75 24.1 32 -0.1 20 20 SSW 8 13 29.76 1008 10 16.0934 0 0
4:15 pm 16:15 Sunny 75 24 32 -0.2 20 20 SW 8 13 29.77 1008 10 16.0934 0 0
4:35 pm 16:35 Sunny 73 23 31 -0.4 21 21 SW 7 11 29.76 1008 10 16.0934 0 0
4:55 pm 16:55 Sunny 70 21.2 31 -0.5 24 24 SW 3 6 29.77 1008 10 16.0934 0 0
5:15 pm 17:15 Sunny 69 20.5 31 -0.8 24 24 SW 6 9 29.77 1008 10 16.0934 0 0
5:35 pm 17:35 Clear 64 17.8 30 -1.1 28 28 WSW 3 6 29.8 1009 10 16.0934 0 0
5:55 pm 17:55 Clear 63 17.1 29 -1.5 28 28 W 8 13 29.81 1010 10 16.0934 0 0
6:15 pm 18:15 Clear 61 15.9 29 -1.5 31 31 Calm 29.82 1010 10 16.0934 0 0
6:35 pm 18:35 Clear 60 15.8 29 -1.6 31 31 WNW 5 7 29.84 1011 10 16.0934 0 0
6:55 pm 18:55 Clear 55 12.7 28 -2.4 35 35 WNW 3 6 29.88 1012 10 16.0934 0 0
7:15 pm 19:15 Clear 55 12.7 28 -2.3 35 35 NW 5 7 29.88 1012 10 16.0934 0 0
7:35 pm 19:35 Clear 56 13.4 28 -2.1 34 34 WNW 5 7 29.87 1012 10 16.0934 0 0
7:55 pm 19:55 Clear 55 12.9 28 -2.1 36 36 NW 8 13 29.89 1012 10 16.0934 0 0
8:15 pm 20:15 Clear 53 11.8 28 -2 38 38 NNW 9 15 29.91 1013 10 16.0934 0 0
8:35 pm 20:35 Clear 52 11.2 28 -2.1 40 40 NNW 9 15 29.91 1013 10 16.0934 0 0
8:55 pm 20:55 Clear 53 11.6 28 -2 39 39 N 8 13 29.92 1013 10 16.0934 0 0
9:15 pm 21:15 Clear 49 9.6 28 -2.1 44 44 N 8 13 29.95 1014 10 16.0934 0 0
9:35 pm 21:35 Clear 46 8 28 -2.5 48 48 NNW 7 11 29.98 1015 10 16.0934 0 0
9:55 pm 21:55 Clear 46 7.6 28 -2.2 50 50 NNW 7 11 29.98 1015 10 16.0934 0 0
10:15 pm 22:15 Clear 45 7.1 28 -2.3 52 52 NW 5 7 30 1016 10 16.0934 0 0
10:35 pm 22:35 Clear 43 6.3 28 -2.4 54 54 NNW 7 11 30.01 1016 10 16.0934 0 0
10:55 pm 22:55 Clear 41 5.1 28 -2.5 58 58 NNW 6 9 30.03 1017 10 16.0934 0 0
11:15 pm 23:15 Clear 44 6.6 28 -2.2 54 54 NNW 5 7 30.01 1016 10 16.0934 0 0
11:35 pm 23:35 Clear 42 5.5 28 -2.2 58 58 NW 3 6 30.02 1017 10 16.0934 0 0
11:55 pm 23:55 Clear 40 4.7 28 -2.5 60 60 NW 5 7 30.03 1017 10 16.0934 0 0

Powered by AerisWeather